Weather in Cherny Zaton

Russia / Saratov Oblast     52°45′24″N   48°18′46″E
temp.,
°C
wind,
m/s
gust,
m/s
humid.,
%
clouds,
%
prec.,
mm/h
press.,
hPa
HPBL,
m
17 may, mon
mon1701:00+18sse125210 0.0 101611
04:00+17se2258100 0.0 101715
07:00+19se236046 0.0 101795
10:00+23sse235052 0.0 1018235
13:00+27sse343639 0.0 1017667
16:00+29sse35268 0.0 10162325
19:00+26sse11395 0.0 101611
22:00+20ese114741 0.0 101711
18 may, tue
tue1801:00+19e11471 0.0 101611
04:00+17ene22455 0.0 101611
07:00+18ene36522 0.0 1017132
10:00+24ese57380 0.0 1016438
13:00+27se56310 0.0 1016979
16:00+29ese45260 0.0 10151858
19:00+26ese22383 0.0 101425
22:00+21ne34495 0.0 101439
19 may, wed
wed1901:00+19ene33474 0.0 101439
04:00+16ne59544 0.0 1014138
07:00+18ene510794 0.0 1014270
10:00+23e68550 0.0 1014616
13:00+27e68411 0.0 10141544
16:00+27e893926 0.0 10132029
19:00+24e611470 0.0 1012344
22:00+21e715560 0.0 1014428
20 may, thu
thu2001:00+19ese816600 0.0 1014576
04:00+17ese6136416 0.0 1014414
07:00+17ese61369100 0.1 1015629
10:00+20se8115825 0.1 1014979
13:00+22se81154100 0.3 10131643
16:00+19s61071100 3.8 1012574
19:00+15w3689100 4.1 1013219
22:00+14se1194100 5.7 101431
21 may, fri
fri2101:00+14wsw2490100 0.3 1013142
04:00+13s239232 0.4 101454
07:00+15sw35840 0.0 1015247
10:00+18sw566953 0.0 1016904
13:00+20sw675517 0.1 10161504
16:00+21sw674999 0.1 10171711
19:00+20ssw4762100 0.0 1017302
22:00+17sse226664 0.0 101815